Cheyenne, WY

6:14 PM MST on February 25, 2017 (GMT -0700)
Cheyenne

Weather History for KCYS - April, 2013

Change the Weather History Date:

Sunday, April 28, 2013

  Actual Average Record
Temperature  
Mean Temperature 57 °F 47 °F  
Max Temperature 73 °F 59 °F 82 °F (1910)
Min Temperature 41 °F 34 °F 13 °F (1984)
Degree Days  
Heating Degree Days 8 18  
Month to date heating degree days 834 629  
Since 1 July heating degree days 6697 6549  
Cooling Degree Days 0 0  
Month to date cooling degree days 0 0  
Year to date cooling degree days 0 0  
Growing Degree Days 10 (Base 50)    
Moisture  
Dew Point 25 °F    
Average Humidity 34    
Maximum Humidity 54    
Minimum Humidity 14    
Precipitation  
Precipitation T in 0.07 in 1.24 in (1896)
Month to date precipitation 2.10 1.64  
Year to date precipitation 3.61 3.49  
Snow  
Snow 0.00 in 0.30 in 5.50 in (2005)
Month to date snowfall 30.3 9.8  
Since 1 July snowfall 75.5 57.6  
Snow Depth 0.00 in    
Sea Level Pressure  
Sea Level Pressure 29.80 in    
Wind  
Wind Speed 14 mph (WNW)    
Max Wind Speed 31 mph    
Max Gust Speed 41 mph    
Visibility 10 miles    
Events Rain    
T = Trace of Precipitation, MM = Missing Value Source: NWS Daily Summary

Daily Weather History Graph

Daily Weather History Graph

Search for Another Location

Airport or City:

Trip Planner

Search our weather history database for the weather conditions in past years. The results will help you decide how hot, cold, wet, or windy it might be!

Date:

Astronomy

Apr. 28, 2013 Rise Set
Actual Time 6:00 AM MDT 7:53 PM MDT
Civil Twilight 5:30 AM MDT 8:23 PM MDT
Nautical Twilight 4:54 AM MDT 8:59 PM MDT
Astronomical Twilight 4:15 AM MDT 9:38 PM MDT
Moon 11:27 PM MDT (4/28) 8:18 AM MDT (4/28)
Length of Visible Light 14h 52m
Length of Day
13h 52m
Waning Gibbous, 88% of the Moon is Illuminated
Apr 28
Waning Gibbous
May 2
Last Quarter
May 9
New
May 17
First Quarter
May 24
Full

Hourly Weather History & Observations

Time (MDT) Temp. Windchill Dew Point Humidity Pressure Visibility Wind Dir Wind Speed Gust Speed Precip Events Conditions
12:53 AM 44.1 °F 38.1 °F 24.1 °F 45% 29.90 in 10.0 mi West 11.5 mph - N/A   Clear
1:53 AM 44.1 °F 38.6 °F 24.1 °F 45% 29.87 in 10.0 mi West 10.4 mph - N/A   Clear
2:53 AM 44.1 °F 39.5 °F 23.0 °F 43% 29.85 in 10.0 mi West 8.1 mph - N/A   Clear
3:53 AM 46.0 °F 40.2 °F 21.9 °F 39% 29.84 in 10.0 mi West 12.7 mph - N/A   Clear
4:53 AM 42.1 °F 36.1 °F 24.1 °F 49% 29.85 in 10.0 mi West 10.4 mph - N/A   Clear
5:53 AM 46.9 °F - 24.1 °F 41% 29.82 in 10.0 mi West 15.0 mph - N/A   Clear
6:53 AM 52.0 °F - 26.1 °F 37% 29.81 in 10.0 mi West 8.1 mph - N/A   Clear
7:53 AM 59.0 °F - 24.1 °F 26% 29.81 in 10.0 mi WNW 15.0 mph 26.5 mph N/A   Clear
8:53 AM 61.0 °F - 23.0 °F 23% 29.83 in 10.0 mi WNW 21.9 mph 41.4 mph N/A   Clear
9:53 AM 62.1 °F - 24.1 °F 23% 29.84 in 10.0 mi WNW 24.2 mph 31.1 mph N/A   Clear
10:53 AM 64.9 °F - 21.9 °F 19% 29.82 in 10.0 mi WNW 26.5 mph 35.7 mph N/A   Clear
11:53 AM 68.0 °F - 18.0 °F 15% 29.80 in 10.0 mi NW 18.4 mph 29.9 mph N/A   Clear
12:53 PM 70.0 °F - 19.9 °F 15% 29.78 in 10.0 mi West 18.4 mph 25.3 mph N/A   Clear
1:53 PM 70.0 °F - 19.9 °F 15% 29.78 in 10.0 mi West 13.8 mph 24.2 mph N/A   Scattered Clouds
2:53 PM 66.9 °F - 23.0 °F 19% 29.78 in 10.0 mi NW 23.0 mph 34.5 mph 0.00 in Rain Light Rain
3:53 PM 68.0 °F - 23.0 °F 18% 29.74 in 10.0 mi WNW 15.0 mph 19.6 mph 0.00 in   Overcast
4:51 PM 66.2 °F - 21.2 °F 18% 29.92 in 10.0 mi NW 13.8 mph 21.9 mph N/A   Mostly Cloudy
4:53 PM 66.9 °F - 21.9 °F 18% 29.75 in 10.0 mi NW 13.8 mph 21.9 mph N/A   Mostly Cloudy
5:53 PM 64.9 °F - 24.1 °F 21% 29.75 in 10.0 mi NNW 17.3 mph 23.0 mph N/A   Mostly Cloudy
6:53 PM 62.1 °F - 26.1 °F 25% 29.75 in 10.0 mi NW 8.1 mph - N/A   Overcast
7:53 PM 57.0 °F - 32.0 °F 39% 29.74 in 10.0 mi NNE 8.1 mph - N/A   Scattered Clouds
8:53 PM 55.9 °F - 32.0 °F 40% 29.76 in 10.0 mi North 4.6 mph - N/A   Mostly Cloudy
9:53 PM 52.0 °F - 35.1 °F 53% 29.78 in 10.0 mi WSW 4.6 mph - N/A   Mostly Cloudy
10:53 PM 54.0 °F - 32.0 °F 43% 29.75 in 10.0 mi West 10.4 mph - N/A   Overcast
11:53 PM 54.0 °F - 30.9 °F 41% 29.74 in 10.0 mi West 10.4 mph - N/A   Overcast